Regional Weather Roundup
Issued by NWS

Home | Current Version | Previous Version | Graphics & Text | Print | Product List | Glossary On
Versions: 1 2 3 4 5 6 7 8 9 10 11 12 13 14 15 16 17 18 19 20 21 22 23 24 25 26 27
000
ASUS45 KPSR 161210
RWRAZ

ARIZONA HOURLY REGIONAL WEATHER ROUNDUP
NATIONAL WEATHER SERVICE PHOENIX AZ
500 AM MST SAT DEC 16 2017

NOTE: FAIR INDICATES FEW OR NO CLOUDS BELOW 12,000 FEET WITH NO
SIGNIFICANT WEATHER AND/OR OBSTRUCTIONS TO VISIBILITY.

AZZ001>003-036-161300-
NORTHWEST ARIZONA

CITY           SKY/WX    TMP DP  RH WIND       PRES   REMARKS
BULLHEAD CITY  CLOUDY    50  12  22 CALM      29.80F
KINGMAN        CLOUDY    40   3  21 E6        29.82F
6HR MIN TEMP:  34; 6HR MAX TEMP:  46;

$$

AZZ004>008-015-016-018-161300-
NORTH CENTRAL ARIZONA

CITY           SKY/WX    TMP DP  RH WIND       PRES   REMARKS
GRAND CANYON   CLOUDY    19 -10  27 E5        29.91F WCI  12
6HR MIN TEMP:  14; 6HR MAX TEMP:  20;

WILLIAMS       CLOUDY    36  -9  14 SE7       29.90F WCI  30
PRESCOTT       CLOUDY    30   1  29 S5        29.91F WCI  25
6HR MIN TEMP:  28; 6HR MAX TEMP:  34;

FLAGSTAFF      CLOUDY    25  -3  29 CALM      29.94F
6HR MIN TEMP:  21; 6HR MAX TEMP:  25;

PAYSON         PTCLDY    37  10  32 E3        29.95F
PAGE           CLOUDY    33  14  45 CALM      29.88F
6HR MIN TEMP:  32; 6HR MAX TEMP:  37;

$$

AZZ009>014-017-161300-
NORTHEAST ARIZONA

CITY           SKY/WX    TMP DP  RH WIND       PRES   REMARKS
WINSLOW        MOCLDY    20   2  45 E3        29.93F
6HR MIN TEMP:  19; 6HR MAX TEMP:  24;

SAINT JOHNS    MOCLDY     9  -7  48 W5        29.96F WCI   1
6HR MIN TEMP:   9; 6HR MAX TEMP:  27;

WINDOW ROCK    MOCLDY    11  -8  42 CALM      29.97F
6HR MIN TEMP:   8; 6HR MAX TEMP:  19;

SHOW LOW       PTCLDY    32  10  40 S13       29.96F WCI  22
$$

AZZ540-542>544-546-548-161300-
GREATER PHOENIX AREA

CITY           SKY/WX    TMP DP  RH WIND       PRES   REMARKS
PHOENIX        CLOUDY    50  23  34 E10       29.84F
6HR MIN TEMP:  50; 6HR MAX TEMP:  55;

BUCKEYE        CLOUDY    39   3  22 CALM      29.85F
LUKE AFB       CLOUDY    44  22  41 N7        29.84F
6HR MIN TEMP:  42; 6HR MAX TEMP:  46;

DEER VALLEY    CLOUDY    49  14  24 CALM      29.85F
6HR MIN TEMP:  47; 6HR MAX TEMP:  53;

SCOTTSDALE     MOCLDY    45  21  38 CALM      29.86F
6HR MIN TEMP:  43; 6HR MAX TEMP:  52;

MESA-GATEWAY   CLEAR     39  19  45 SE7       29.87F WCI  34
$$

AZZ539-553-161300-
SOUTHWEST MARICOPA COUNTY AND PINAL COUNTY

CITY           SKY/WX    TMP DP  RH WIND       PRES   REMARKS
CASA GRANDE    NOT AVBL
$$

AZZ503-504-507>509-161300-
SOUTHEAST ARIZONA

CITY           SKY/WX    TMP DP  RH WIND       PRES   REMARKS
TUCSON         PTCLDY    44  14  29 SE12      29.90F
6HR MIN TEMP:  44; 6HR MAX TEMP:  56;

DAVIS-MONTHAN  CLOUDY    45  13  28 SE12      29.89F
6HR MIN TEMP:  44; 6HR MAX TEMP:  51;

NOGALES        CLEAR     31   9  39 E5        29.93F WCI  26
6HR MIN TEMP:  30; 6HR MAX TEMP:  41;

SIERRA VISTA   PTCLDY    36  12  37 SE7       29.95F WCI  31
6HR MIN TEMP:  28; 6HR MAX TEMP:  40;

DOUGLAS        PTCLDY    19   8  62 CALM      29.97F
6HR MIN TEMP:  17; 6HR MAX TEMP:  36;

SAFFORD        PTCLDY    38  18  44 SE13G20   29.97F WCI  30
6HR MIN TEMP:  37; 6HR MAX TEMP:  42;

$$

AZZ532-161300-
SOUTHWEST ARIZONA

CITY           SKY/WX    TMP DP  RH WIND       PRES   REMARKS
YUMA           CLOUDY    50  25  37 NE5       29.79F
6HR MIN TEMP:  50; 6HR MAX TEMP:  57;

$$

CAZ041-043-047-048-061-525>527-560>570-161300-
SOUTHERN CALIFORNIA

CITY           SKY/WX    TMP DP  RH WIND       PRES   REMARKS
DOWNTOWN L.A.  CLOUDY    53  41  63 CALM      29.81F
6HR MIN TEMP:  53; 6HR MAX TEMP:  59;

L.A. AIRPORT   CLOUDY    54  44  69 NE3       29.81F
6HR MIN TEMP:  53; 6HR MAX TEMP:  62;

SAN DIEGO      MOCLDY    53  30  41 N5        29.85F
6HR MIN TEMP:  53; 6HR MAX TEMP:  59;

BURBANK        CLOUDY    54  26  34 CALM      29.80F
6HR MIN TEMP:  52; 6HR MAX TEMP:  60;

ONTARIO        CLOUDY    51  25  36 N3        29.81F
6HR MIN TEMP:  47; 6HR MAX TEMP:  60;

RIVERSIDE      CLOUDY    50  27  40 NE5       29.81F
6HR MIN TEMP:  48; 6HR MAX TEMP:  57;

PALM SPRINGS   CLOUDY    55  27  34 CALM      29.79F
6HR MIN TEMP:  51; 6HR MAX TEMP:  59;

EL CENTRO NAS  CLOUDY    47  17  30 VRB3      29.79F
6HR MIN TEMP:  45; 6HR MAX TEMP:  52;

IMPERIAL       CLOUDY    48  26  42 CALM      29.77F
6HR MIN TEMP:  47; 6HR MAX TEMP:  52;

BLYTHE         CLOUDY    44  11  26 E3        29.79F
6HR MIN TEMP:  44; 6HR MAX TEMP:  47;

NEEDLES        CLOUDY    50  12  21 NW7       29.80F
6HR MIN TEMP:  49; 6HR MAX TEMP:  54;

$$

NVZ020-UTZ003-161300-
SOUTHERN NEVADA-UTAH

CITY           SKY/WX    TMP DP  RH WIND       PRES   REMARKS
LAS VEGAS      CLOUDY    46  19  34 SW3       29.79F
6HR MIN TEMP:  46; 6HR MAX TEMP:  50;

SALT LAKE CITY CLOUDY    33  28  81 NW9       29.87F HAZE    WCI  25
6HR MIN TEMP:  31; 6HR MAX TEMP:  34;

$$

NMZ009-TXZ055-161300-
NEW MEXICO-WEST TEXAS

CITY           SKY/WX    TMP DP  RH WIND       PRES   REMARKS
ALBUQUERQUE    CLOUDY    26  14  60 SE3       29.97F
6HR MIN TEMP:  24; 6HR MAX TEMP:  32;

EL PASO        CLEAR     27  21  78 E3        30.00F
6HR MIN TEMP:  27; 6HR MAX TEMP:  38;

$$


........................KEY........................
SKY/WX - SKY CONDITION/WEATHER
TMP    - TEMPERATURE IN FAHRENHEIT
DP     - DEW POINT IN FAHRENHEIT
RH     - RELATIVE HUMIDITY IN PERCENT
WIND   - DIRECTION AND SPEED IN MILES PER HOUR (MPH)
VRB    - VARIABLE WIND DIRECTION
PRES   - MEAN SEA LEVEL PRESSURE IN INCHES OF MERCURY
         F - FALLING PRESSURE   R - RISING PRESSURE
         S - STEADY PRESSURE
VSB    - VISIBILITY IN MILES
HX     - HEAT INDEX IN FAHRENHEIT
WCI    - WIND CHILL INDEX IN FAHRENHEIT
TC     - TEMPERATURE IN CELSIUS WHICH IS ALSO KNOWN AS
         TEMPERATURE IN CENTIGRADE
AFB    - AIR FORCE BASE
         LUKE AFB IS LUKE AIR FORCE BASE
         DAVIS-MONTHAN IS DAVIS-MONTHAN AIR FORCE BASE
NAS    - NAVAL AIR STATION
         EL CENTRO NAS IS EL CENTRO NAVAL AIR STATION
N/A    - NOT AVAILABLE





USA.gov is the U.S. government's official web portal to all federal, state and local government web resources and services.